Regional Weather Roundup
Issued by NWS

Home | Current Version | Previous Version | Graphics & Text | Print | Product List | Glossary On
Versions: 1 2 3 4 5 6 7 8 9 10 11 12 13 14 15 16 17 18 19 20 21 22 23 24 25 26 27 28 29 30 31 32 33 34 35 36 37 38 39 40 41 42 43 44 45 46 47 48 49 50
898
ASUS45 KTFX 261010
RWRMT
MONTANA REGIONAL WEATHER ROUNDUP
NATIONAL WEATHER SERVICE GREAT FALLS MT
400 AM MDT WED APR 26 2017

NOTE: "FAIR" INDICATES FEW OR NO CLOUDS BELOW 12000 FEET WITH NO
SIGNIFICANT WEATHER AND/OR OBSTRUCTIONS TO VISIBILITY.

MTZ001>007-043-261100-
WEST OF THE DIVIDE

CITY           SKY/WX    TMP DP  RH WIND       PRES   REMARKS
KALISPELL      CLOUDY    40  39  97 N3        29.75F
MISSOULA       LGT RAIN  41  39  93 NW7       29.78F
BUTTE          CLOUDY    37  31  78 CALM      29.76F
MULLAN PASS    SNOW      31  31 100 VRB3      29.72F VSB 1/4
ANACONDA         N/A     37  32  81 W3        29.77F
DEER LODGE       N/A     37  34  87 CALM      29.79F
EUREKA           N/A     43  36  75 SE5       29.74F
HAMILTON         N/A     43  36  75 CALM      29.77F
PLAINS           N/A     40  35  82 MISG      29.78F
$$

MTZ008-052>055-261100-
SOUTHWEST MONTANA

CITY           SKY/WX    TMP DP  RH WIND       PRES   REMARKS
BOZEMAN        CLOUDY    41  36  82 CALM      29.77F
DILLON         MOCLDY    38  32  79 S9        29.76F WCI  31
W YELLOWSTONE  CLOUDY    32  28  86 SW16      29.79F FOG     WCI  21
THREE FORKS      N/A     41  41 100 CALM      29.79F
TWIN BRIDGES     N/A     39  32  76 SE3       29.79F
$$

MTZ009-010-012-014-046-048-049-054-261100-
EAST SLOPES AND CENTRAL MONTANA

CITY           SKY/WX    TMP DP  RH WIND       PRES   REMARKS
CUT BANK       CLOUDY    32  32 100 E8        29.74F FOG     WCI  25
GREAT FALLS    CLEAR     32  31  96 S3        29.76F
MALMSTROM AFB  CLEAR     32  32 100 S6        29.77F WCI  26
HELENA         CLOUDY    38  34  85 CALM      29.76F
AUGUSTA          N/A     32  33 100 CALM      29.73F
BOWMANS CRNR     N/A     32  32 100 S8        29.72F WCI  24
CHOTEAU          N/A     34  34 100 SE3       29.76F
FAIRFIELD        N/A     34  32  92 SE5       29.74F
POWER          MOCLDY    35  33  94 CALM      29.75F
RAYNESFORD       N/A     31  30  96 CALM      29.77S
ULM              N/A     32  32  97 SE8       29.76F WCI  25
$$

MTZ011-013-016-021-045-047-050-051-261100-
NORTH CENTRAL MONTANA

CITY           SKY/WX    TMP DP  RH WIND       PRES   REMARKS
HAVRE          CLOUDY    38  36  92 E7        29.79F
LEWISTOWN      PTCLDY    32  30  92 E7        29.77F WCI  26
N BAR RANCH    CLOUDY    32  30  93 CALM      29.81F
CHINOOK          N/A     36  34  93 E8        29.82F WCI  29
DENTON         MOCLDY    35  34  99 MISG      29.75F
GEYSER         CLOUDY    32  31  98 W3        29.77F FOG
GRASS RANGE    MOCLDY    31  31 100 CALM      29.76F FOG
JUDITH GAP     CLOUDY    32  31  95 S12       29.77F WCI  23
STANFORD         N/A     28  29 100 CALM      29.76F
WINIFRED       FOG       32  33 100 E5        29.78F VSB 3/4
$$

MTZ017>020-022>027-061-062-261100-
NORTHEAST MONTANA

CITY           SKY/WX    TMP DP  RH WIND       PRES   REMARKS
GLASGOW        CLOUDY    35  25  66 SE12      29.89F WCI  27
JORDAN           N/A     30  26  85 SE9       29.87F WCI  22
SIDNEY         CLEAR     27  23  85 N6        29.95F WCI  20
WOLF POINT     CLOUDY    34  26  72 NE3       29.94F
MALTA          CLOUDY    36  28  75 E6        29.86F WCI  31
PLENTYWOOD       N/A     27  21  80 NE7       29.96F WCI  19
POPLAR           N/A     34  25  69 NE7       29.94F WCI  28
SCOBEY           N/A     32  19  58 E8        29.91F WCI  25
$$

MTZ028>42-056>058-261100-
SOUTHCENTRAL AND SOUTHEAST MONTANA

CITY           SKY/WX    TMP DP  RH WIND       PRES   REMARKS
BAKER          CLOUDY    30  24  78 NW5       29.89F
BILLINGS       CLOUDY    34  29  82 E3        29.83S
LIVINGSTON     CLOUDY    34  33  96 SE5       29.78S FOG
MILES CITY     CLOUDY    35  25  66 S7        29.89F WCI  29
BIG TIMBER     FOG       34  34 100 E5        29.81F VSB 1/2
EKALAKA          N/A     28  19  69 CALM      29.86F
LAUREL           N/A     34  24  67 CALM      29.83F
ROUNDUP          N/A     35  26  70 SE7       29.76S WCI  29
$$

REGIONAL REPORTS...DAKOTAS

CITY           SKY/WX    TMP DP  RH WIND       PRES   REMARKS
WILLISTON      CLEAR     25  21  85 N6        29.97S WCI  18
MINOT          CLOUDY    27  21  78 N10       29.94S WCI  17
DICKINSON      CLOUDY    30  24  78 N6        29.88S WCI  24
BEACH          CLOUDY    30  28  93 CALM      29.93F
TIOGA            N/A     23  23 100 NE5       29.96F
WATFORD CITY     N/A     25  23  93 CALM      29.94F
BISMARCK       CLOUDY    33  24  69 N15       29.87F WCI  23
GRAND FORKS    CLOUDY    32  26  78 NE20G30   29.84S WCI  20
FARGO          MIX PCPN  31  28  89 N18       29.76R WCI  19
BUFFALO SD       N/A     31  25  78 NW13      29.80S WCI  21
RAPID CITY     CLOUDY    28  24  85 NW17      29.85F WCI  16
$$

REGIONAL REPORTS...WYOMING/IDAHO/WASHINGTON

CITY           SKY/WX    TMP DP  RH WIND       PRES   REMARKS
GILLETTE       CLOUDY    28  27  96 S7        29.83F WCI  21
SHERIDAN       CLOUDY    31  27  85 SE6       29.81F WCI  25
CODY           PTCLDY    31  30  96 NW3       29.80S
YELLOWSTONE LA   N/A     28  26  92 CALM      29.82F
IDAHO FALLS    CLEAR     38  31  76 SW14      29.83S WCI  30
SALMON         CLOUDY    37  34  87 CALM      29.79F
BOISE          CLOUDY    47  40  76 E7        29.86F
SPOKANE        LGT RAIN  43  40  89 S5        29.75F
$$

REGIONAL REPORTS...ALBERTA

CITY           SKY/WX    TMP DP  RH WIND       PRES   REMARKS
EDMONTON       CLOUDY    32  27  80 SE12      29.84F WCI  23
CALGARY        MOCLDY    28  25  86 SE7       29.75F WCI  21
LETHBRIDGE     LGT SNOW  32  30  93 NE5       29.78F
MEDICINE HAT   CLOUDY    37  36  93 SE5       29.78F
CARDSTON         N/A     32  30  93 E3          N/A
MILK RIVER       N/A     32  32 100 E2          N/A
$$

REGIONAL REPORTS...SASKATCHEWAN

CITY           SKY/WX    TMP DP  RH WIND       PRES   REMARKS
SWIFT CURRENT  FLURRIES  30  28  93 SE14      29.85F WCI  20
REGINA         MOCLDY    27  18  69 E16       30.00F WCI  14
SASKATOON      FLURRIES  28  27  93 SE9       30.00S WCI  20
CYPRESS HILLS    N/A     28  27  93 SE7         N/A  WCI  21
VAL MARIE        N/A     34  27  75 SE14        N/A  WCI  24
ASSINIBOIA       N/A     30  28  93 SE9         N/A  WCI  22
$$




USA.gov is the U.S. government's official web portal to all federal, state and local government web resources and services.